YO8RXT-3 Weather Reports


time (UTC)temp
C
wind
direction
speed
KPH
gust
KPH
rain 1hr
cm
rain 24hr
cm
rain mn
cm
humidity
%
barometer
mb
20260906050502 16 310 17.7 0.0 0.00 0.00 0.00 83 1019.0
20260906043502 16 250 4.8 0.0 0.00 0.00 0.00 83 1018.0
20260906040502 15 240 8.0 0.0 0.00 0.00 0.00 88 1018.0
20260906033502 15 230 9.7 0.0 0.00 0.00 0.00 88 1017.0
20260906030502 15 230 8.0 0.0 0.00 0.00 0.00 88 1017.0
20260906023503 15 230 4.8 0.0 0.00 0.00 0.00 88 1017.0
20260906020503 16 220 3.2 0.0 0.00 0.00 0.00 83 1017.0
20260906013502 16 240 4.8 0.0 0.00 0.00 0.00 88 1017.0
20260906010501 16 190 8.0 0.0 0.00 0.00 0.00 88 1017.0
20260906003501 16 230 8.0 0.0 0.00 0.00 0.00 88 1017.0
20260906000502 16 220 8.0 0.0 0.00 0.00 0.00 88 1017.0
20260905233502 16 250 8.0 0.0 0.00 0.00 0.00 88 1017.0
20260905230503 17 240 8.0 0.0 0.00 0.00 0.00 83 1018.0
20260905223502 17 240 9.7 0.0 0.00 0.00 0.00 83 1018.0
20260905220501 16 240 9.7 0.0 0.00 0.00 0.00 88
20260905213502 16 260 9.7 0.0 0.00 0.00 0.00 88 1017.0
20260905210502 16 260 11.3 0.0 0.00 0.00 0.00 88 1017.0
20260905203503 16 270 9.7 0.0 0.00 0.00 0.00 88 1017.0
20260905200502 16 280 9.7 0.0 0.00 0.00 0.00 94 1016.0
20260905193502 17 250 8.0 0.0 0.00 0.00 0.00 88 1017.0
20260905190502 17 240 8.0 0.0 0.00 0.00 0.00 88 1017.0
20260905183503 17 270 9.7 0.0 0.00 0.00 0.00 88 1017.0
20260905180503 17 320 11.3 0.0 0.00 0.00 0.00 88 1016.0
20260905173502 17 320 9.7 0.0 0.00 0.00 0.00 88 1016.0
20260905170502 22 320 14.5 0.0 0.00 0.00 0.00 50 1016.0
20260905163502 22 360 8.0 0.0 0.00 0.00 0.00 47 1015.0
20260905160502 22 320 32.2 0.0 0.00 0.00 0.00 47 1015.0
20260905153503 22 320 27.4 46.7 0.00 0.00 0.00 47 1014.0
20260905150502 23 330 41.8 61.2 0.00 0.00 0.00 47 1013.0
20260905143502 25 330 49.9 0.0 0.00 0.00 0.00 42 1012.0
20260905140502 32 300 17.7 0.0 0.00 0.00 0.00 29 1012.0
20260905133502 32 250 9.7 0.0 0.00 0.00 0.00 28 1011.0
20260905130502 32 270 11.3 0.0 0.00 0.00 0.00 28 1011.0
20260905123502 32 11.3 0.0 0.00 0.00 0.00 27 1012.0
20260905120502 32 260 11.3 0.0 0.00 0.00 0.00 28 1012.0
20260905113503 32 210 12.9 0.0 0.00 0.00 0.00 29 1012.0
20260905110502 31 190 11.3 0.0 0.00 0.00 0.00 31 1012.0
20260905103503 31 190 9.7 0.0 0.00 0.00 0.00 31 1013.0
20260905100502 31 200 12.9 0.0 0.00 0.00 0.00 31 1013.0
20260905093502 31 220 12.9 0.0 0.00 0.00 0.00 33 1013.0
20260905090503 30 210 12.9 0.0 0.00 0.00 0.00 33 1013.0
20260905083503 28 240 12.9 0.0 0.00 0.00 0.00 35 1013.0
20260905080502 27 240 11.3 0.0 0.00 0.00 0.00 37 1014.0
20260905073502 27 190 9.7 0.0 0.00 0.00 0.00 42 1014.0
20260905070503 26 190 9.7 0.0 0.00 0.00 0.00 45 1014.0
20260905063502 23 210 11.3 0.0 0.00 0.00 0.00 47 1014.0
20260905060503 22 210 9.7 0.0 0.00 0.00 0.00 53 1014.0
20260905053502 21 200 9.7 0.0 0.00 0.00 0.00 57 1014.0